Tracking 25195 objects as of 21-Jan-2022
HD Live streaming from Space Station
objects crossing your sky now

STARLINK-2133

Track STARLINK-2133 now!
10-day predictions
STARLINK-2133 is classified as:


NORAD ID: 47406
Int'l Code: 2021-005BK
Perigee: 553.1 km
Apogee: 555.5 km
Inclination: 53.1 °
Period: 95.6 minutes
Semi major axis: 6925 km
RCS: Unknown
Launch date: January 20, 2021
Source: United States (US)
Launch site: AIR FORCE EASTERN TEST RANGE (AFETR)
aabbcc
Your satellite tracking list
Your tracking list is empty




NASA's NSSDC Master Catalog

Two Line Element Set (TLE):
1 47406U 21005BK  22020.57221978  .00009010  00000-0  62275-3 0  9991
2 47406  53.0555 326.3083 0001713  65.1201 294.9966 15.06413229 56614
Source of the keplerian elements: AFSPC